QPF
0.00 0.00 0.02 0.05 0.04 0.02 0.01 0.01 0.01 0.01 0.01 0.00 0.00 0.00 0.00 0.00 0.00 0.00 0.00 0.00 0.00 0.00 0.00 0.00 0.00 0.00 0.00 0.00 0.00 0.00 0.00 0.01 0.01 0.03 0.03 0.06 0.13 0.14 0.15 0.15 0.14 0.13 0.09
0.00 0.00 0.02 0.05 0.05 0.04 0.02 0.02 0.01 0.01 0.01 0.00 0.00 0.00 0.00 0.00 0.00 0.00 0.00 0.00 0.00 0.00 0.00 0.00 0.00 0.00 0.00 0.00 0.00 0.00 0.00 0.01 0.02 0.02 0.04 0.08 0.11 0.13 0.14 0.14 0.18 0.10 0.07
0.00 0.00 0.01 0.03 0.05 0.05 0.03 0.02 0.01 0.01 0.01 0.00 0.00 0.00 0.00 0.00 0.00 0.00 0.00 0.01 0.00 0.00 0.00 0.00 0.00 0.00 0.00 0.01 0.01 0.01 0.01 0.02 0.03 0.03 0.05 0.09 0.08 0.10 0.11 0.12 0.15 0.08 0.07
0.00 0.00 0.00 0.03 0.05 0.05 0.04 0.04 0.02 0.01 0.01 0.00 0.00 0.00 0.00 0.00 0.00 0.00 0.00 0.01 0.00 0.00 0.00 0.00 0.00 0.00 0.00 0.01 0.01 0.01 0.01 0.02 0.02 0.02 0.03 0.04 0.05 0.06 0.07 0.08 0.11 0.09 0.07
0.00 0.00 0.01 0.03 0.04 0.05 0.05 0.04 0.03 0.02 0.01 0.01 0.01 0.00 0.00 0.00 0.00 0.00 0.00 0.00 0.00 0.00 0.00 0.00 0.00 0.00 0.00 0.00 0.01 0.02 0.02 0.02 0.01 0.02 0.03 0.05 0.07 0.08 0.08 0.08 0.08 0.07 0.07
0.01 0.01 0.01 0.03 0.04 0.05 0.05 0.04 0.03 0.02 0.01 0.01 0.01 0.01 0.00 0.00 0.00 0.00 0.00 0.01 0.01 0.00 0.00 0.00 0.00 0.00 0.00 0.01 0.01 0.03 0.04 0.03 0.02 0.01 0.02 0.04 0.06 0.07 0.09 0.09 0.06 0.04 0.04
0.01 0.01 0.01 0.04 0.05 0.06 0.06 0.05 0.03 0.02 0.02 0.01 0.01 0.01 0.00 0.00 0.01 0.01 0.01 0.01 0.01 0.01 0.00 0.00 0.00 0.00 0.00 0.00 0.01 0.03 0.05 0.04 0.01 0.01 0.02 0.05 0.06 0.07 0.11 0.11 0.06 0.03 0.03
0.01 0.01 0.02 0.04 0.06 0.07 0.06 0.06 0.04 0.03 0.02 0.02 0.01 0.01 0.01 0.01 0.01 0.01 0.01 0.02 0.01 0.01 0.01 0.01 0.01 0.00 0.00 0.00 0.01 0.03 0.05 0.04 0.01 0.01 0.01 0.02 0.04 0.07 0.09 0.09 0.07 0.04 0.04
0.01 0.01 0.02 0.03 0.04 0.06 0.07 0.06 0.04 0.03 0.02 0.01 0.01 0.00 0.00 0.00 0.00 0.01 0.01 0.02 0.02 0.02 0.01 0.01 0.01 0.01 0.01 0.01 0.01 0.02 0.04 0.03 0.01 0.01 0.01 0.02 0.02 0.05 0.08 0.06 0.06 0.05 0.04
0.02 0.02 0.02 0.02 0.03 0.03 0.03 0.04 0.04 0.02 0.02 0.01 0.01 0.00 0.00 0.00 0.01 0.01 0.01 0.02 0.03 0.03 0.03 0.03 0.03 0.03 0.02 0.01 0.01 0.01 0.03 0.02 0.01 0.01 0.01 0.01 0.02 0.04 0.08 0.07 0.06 0.05 0.04
0.02 0.03 0.03 0.03 0.03 0.04 0.03 0.02 0.03 0.02 0.01 0.01 0.02 0.01 0.02 0.03 0.03 0.02 0.02 0.03 0.04 0.04 0.05 0.04 0.04 0.04 0.03 0.02 0.01 0.01 0.01 0.01 0.01 0.01 0.02 0.01 0.01 0.03 0.06 0.08 0.07 0.06 0.05
0.02 0.02 0.03 0.03 0.02 0.02 0.02 0.03 0.03 0.02 0.02 0.03 0.04 0.04 0.05 0.05 0.05 0.03 0.03 0.03 0.05 0.06 0.06 0.06 0.06 0.04 0.03 0.02 0.01 0.01 0.01 0.00 0.01 0.02 0.02 0.02 0.03 0.04 0.06 0.07 0.07 0.06 0.06
0.02 0.02 0.02 0.03 0.03 0.02 0.04 0.04 0.04 0.04 0.04 0.04 0.04 0.04 0.04 0.04 0.04 0.04 0.06 0.07 0.08 0.07 0.08 0.08 0.07 0.06 0.05 0.05 0.04 0.02 0.01 0.01 0.01 0.01 0.02 0.04 0.05 0.06 0.07 0.07 0.06 0.06 0.06
0.03 0.02 0.02 0.03 0.04 0.04 0.06 0.06 0.06 0.04 0.04 0.04 0.03 0.03 0.03 0.04 0.04 0.04 0.04 0.05 0.07 0.09 0.11 0.11 0.10 0.10 0.06 0.05 0.05 0.05 0.03 0.03 0.02 0.02 0.04 0.04 0.07 0.09 0.10 0.10 0.09 0.08 0.08
0.05 0.04 0.05 0.06 0.06 0.07 0.09 0.07 0.06 0.05 0.04 0.03 0.02 0.02 0.03 0.03 0.03 0.03 0.03 0.04 0.04 0.07 0.09 0.09 0.07 0.07 0.07 0.06 0.04 0.04 0.04 0.04 0.04 0.04 0.04 0.05 0.08 0.10 0.12 0.14 0.13 0.11 0.10
0.09 0.07 0.08 0.10 0.09 0.10 0.10 0.09 0.07 0.04 0.03 0.02 0.01 0.01 0.01 0.01 0.01 0.01 0.01 0.02 0.02 0.03 0.04 0.05 0.05 0.06 0.06 0.06 0.05 0.05 0.04 0.03 0.04 0.04 0.06 0.08 0.07 0.08 0.11 0.16 0.15 0.13 0.12
0.13 0.11 0.12 0.13 0.12 0.11 0.12 0.11 0.07 0.03 0.02 0.02 0.01 0.01 0.00 0.00 0.00 0.01 0.01 0.01 0.01 0.01 0.01 0.02 0.03 0.03 0.03 0.04 0.05 0.04 0.04 0.04 0.05 0.04 0.04 0.06 0.05 0.06 0.08 0.13 0.15 0.14 0.17
0.17 0.15 0.14 0.13 0.14 0.15 0.15 0.10 0.05 0.02 0.02 0.02 0.02 0.01 0.00 0.00 0.00 0.01 0.00 0.00 0.00 0.00 0.00 0.01 0.01 0.02 0.02 0.03 0.03 0.03 0.04 0.05 0.04 0.04 0.03 0.04 0.07 0.08 0.10 0.11 0.12 0.13 0.15
0.21 0.21 0.18 0.16 0.19 0.19 0.15 0.08 0.04 0.03 0.02 0.02 0.02 0.00 0.00 0.00 0.00 0.00 0.00 0.00 0.00 0.00 0.00 0.00 0.01 0.01 0.01 0.02 0.01 0.01 0.01 0.02 0.02 0.02 0.03 0.02 0.05 0.08 0.11 0.11 0.10 0.11 0.13
0.23 0.22 0.22 0.21 0.23 0.17 0.12 0.07 0.04 0.03 0.02 0.02 0.01 0.01 0.00 0.00 0.00 0.00 0.00 0.00 0.00 0.00 0.00 0.00 0.01 0.01 0.00 0.00 0.00 0.00 0.00 0.01 0.01 0.02 0.02 0.02 0.03 0.04 0.05 0.08 0.13 0.11 0.11
0.24 0.21 0.22 0.19 0.19 0.15 0.08 0.05 0.03 0.01 0.01 0.01 0.01 0.00 0.00 0.00 0.00 0.00 0.00 0.00 0.00 0.00 0.00 0.00 0.00 0.00 0.00 0.00 0.00 0.00 0.00 0.00 0.00 0.00 0.01 0.01 0.01 0.02 0.03 0.05 0.07 0.08 0.09
0.20 0.21 0.18 0.15 0.12 0.09 0.07 0.04 0.02 0.01 0.00 0.00 0.00 0.00 0.00 0.00 0.00 0.00 0.00 0.00 0.00 0.00 0.00 0.00 0.00 0.00 0.00 0.00 0.00 0.00 0.00 0.00 0.00 0.00 0.00 0.00 0.00 0.00 0.01 0.01 0.02 0.05 0.04
0.12 0.15 0.13 0.10 0.08 0.05 0.04 0.02 0.01 0.00 0.00 0.00 0.00 0.00 0.00 0.00 0.00 0.00 0.00 0.00 0.00 0.00 0.00 0.00 0.00 0.00 0.00 0.00 0.00 0.00 0.00 0.00 0.00 0.00 0.00 0.00 0.00 0.00 0.00 0.00 0.01 0.02 0.03
0.07 0.08 0.09 0.06 0.05 0.02 0.02 0.01 0.00 0.00 0.00 0.00 0.00 0.00 0.00 0.00 0.00 0.00 0.00 0.00 0.00 0.00 0.00 0.00 0.00 0.00 0.00 0.00 0.00 0.00 0.00 0.00 0.00 0.00 0.00 0.00 0.00 0.00 0.00 0.00 0.00 0.01 0.01
0.04 0.04 0.04 0.03 0.02 0.01 0.00 0.00 0.00 0.01 0.01 0.00 0.00 0.00 0.00 0.00 0.00 0.00 0.00 0.00 0.00 0.00 0.00 0.00 0.00 0.00 0.00 0.00 0.00 0.00 0.00 0.00 0.00 0.00 0.00 0.00 0.00 0.00 0.00 0.00 0.00 0.01 0.00
0.02 0.02 0.02 0.02 0.01 0.01 0.00 0.00 0.01 0.01 0.01 0.00 0.00 0.00 0.00 0.00 0.00 0.00 0.00 0.00 0.00 0.00 0.00 0.00 0.00 0.00 0.00 0.00 0.00 0.00 0.00 0.00 0.00 0.00 0.00 0.00 0.00 0.00 0.00 0.00 0.00 0.00 0.00
MSLP
1012.52 1012.68 1013.06 1013.57 1014.11 1014.60 1014.97 1015.20 1015.30 1015.33 1015.36 1015.46 1015.67 1015.99 1016.39 1016.81 1017.19 1017.47 1017.63 1017.67 1017.63 1017.56 1017.50 1017.49 1017.54 1017.62 1017.71 1017.77 1017.76 1017.70 1017.58 1017.46 1017.37 1017.35 1017.42 1017.58 1017.80 1018.04 1018.26 1018.43 1018.54 1018.60 1018.62
1012.25 1012.54 1013.03 1013.64 1014.27 1014.81 1015.21 1015.44 1015.53 1015.54 1015.55 1015.63 1015.84 1016.16 1016.55 1016.98 1017.35 1017.63 1017.78 1017.82 1017.77 1017.71 1017.66 1017.67 1017.73 1017.82 1017.91 1017.96 1017.94 1017.84 1017.71 1017.56 1017.46 1017.45 1017.53 1017.72 1017.97 1018.24 1018.49 1018.69 1018.82 1018.89 1018.92
1011.98 1012.38 1012.98 1013.69 1014.40 1015.01 1015.45 1015.70 1015.80 1015.81 1015.82 1015.89 1016.08 1016.37 1016.74 1017.13 1017.48 1017.73 1017.87 1017.90 1017.86 1017.82 1017.80 1017.83 1017.92 1018.03 1018.11 1018.14 1018.09 1017.96 1017.78 1017.61 1017.49 1017.46 1017.56 1017.76 1018.03 1018.33 1018.61 1018.83 1018.98 1019.07 1019.12
1011.74 1012.24 1012.94 1013.73 1014.51 1015.17 1015.66 1015.95 1016.08 1016.12 1016.13 1016.20 1016.36 1016.62 1016.95 1017.30 1017.59 1017.81 1017.92 1017.95 1017.94 1017.92 1017.95 1018.03 1018.14 1018.26 1018.34 1018.34 1018.25 1018.07 1017.84 1017.63 1017.48 1017.44 1017.54 1017.74 1018.03 1018.35 1018.65 1018.89 1019.07 1019.18 1019.27
1011.59 1012.16 1012.92 1013.77 1014.59 1015.30 1015.83 1016.17 1016.34 1016.41 1016.45 1016.52 1016.66 1016.89 1017.17 1017.45 1017.70 1017.87 1017.97 1018.01 1018.02 1018.06 1018.13 1018.26 1018.40 1018.53 1018.60 1018.56 1018.42 1018.18 1017.91 1017.66 1017.48 1017.43 1017.53 1017.74 1018.04 1018.37 1018.68 1018.95 1019.14 1019.29 1019.41
1011.57 1012.18 1012.95 1013.82 1014.66 1015.39 1015.95 1016.33 1016.54 1016.65 1016.72 1016.80 1016.94 1017.14 1017.37 1017.60 1017.80 1017.94 1018.02 1018.07 1018.13 1018.21 1018.34 1018.51 1018.68 1018.82 1018.86 1018.79 1018.59 1018.31 1017.99 1017.71 1017.52 1017.47 1017.57 1017.80 1018.11 1018.46 1018.78 1019.06 1019.27 1019.43 1019.57
1011.71 1012.30 1013.05 1013.88 1014.70 1015.43 1016.00 1016.40 1016.65 1016.80 1016.91 1017.02 1017.16 1017.34 1017.54 1017.73 1017.88 1018.00 1018.07 1018.14 1018.23 1018.36 1018.54 1018.74 1018.94 1019.07 1019.10 1018.99 1018.76 1018.43 1018.09 1017.79 1017.59 1017.56 1017.68 1017.93 1018.27 1018.63 1018.97 1019.25 1019.46 1019.63 1019.78
1011.98 1012.52 1013.20 1013.97 1014.73 1015.42 1015.97 1016.38 1016.67 1016.86 1017.01 1017.15 1017.31 1017.48 1017.66 1017.81 1017.94 1018.02 1018.09 1018.17 1018.29 1018.45 1018.67 1018.90 1019.11 1019.25 1019.26 1019.13 1018.87 1018.53 1018.18 1017.88 1017.71 1017.70 1017.85 1018.14 1018.50 1018.88 1019.23 1019.51 1019.73 1019.88 1020.02
1012.35 1012.80 1013.40 1014.08 1014.75 1015.38 1015.90 1016.30 1016.61 1016.83 1017.02 1017.20 1017.37 1017.55 1017.71 1017.84 1017.93 1018.00 1018.06 1018.14 1018.26 1018.45 1018.68 1018.94 1019.16 1019.29 1019.30 1019.16 1018.91 1018.58 1018.24 1017.97 1017.83 1017.86 1018.06 1018.37 1018.76 1019.16 1019.52 1019.81 1020.01 1020.15 1020.27
1012.75 1013.12 1013.62 1014.20 1014.79 1015.33 1015.81 1016.19 1016.50 1016.76 1016.98 1017.18 1017.38 1017.56 1017.71 1017.82 1017.88 1017.92 1017.96 1018.02 1018.14 1018.33 1018.57 1018.83 1019.06 1019.20 1019.22 1019.10 1018.87 1018.56 1018.26 1018.04 1017.94 1018.01 1018.24 1018.59 1019.00 1019.42 1019.78 1020.07 1020.27 1020.39 1020.48
1013.12 1013.44 1013.86 1014.34 1014.85 1015.32 1015.75 1016.11 1016.41 1016.68 1016.92 1017.15 1017.36 1017.54 1017.68 1017.76 1017.80 1017.80 1017.80 1017.84 1017.94 1018.11 1018.34 1018.60 1018.84 1019.00 1019.04 1018.96 1018.77 1018.51 1018.26 1018.07 1018.02 1018.12 1018.36 1018.73 1019.15 1019.57 1019.94 1020.24 1020.44 1020.57 1020.65
1013.44 1013.72 1014.10 1014.52 1014.96 1015.38 1015.76 1016.09 1016.38 1016.65 1016.90 1017.14 1017.35 1017.53 1017.65 1017.71 1017.71 1017.68 1017.64 1017.64 1017.70 1017.85 1018.06 1018.31 1018.55 1018.73 1018.81 1018.78 1018.64 1018.44 1018.24 1018.10 1018.06 1018.17 1018.41 1018.76 1019.18 1019.59 1019.97 1020.28 1020.50 1020.64 1020.74
1013.68 1013.98 1014.35 1014.75 1015.15 1015.53 1015.87 1016.17 1016.45 1016.71 1016.96 1017.19 1017.40 1017.57 1017.67 1017.70 1017.67 1017.60 1017.52 1017.48 1017.50 1017.61 1017.79 1018.03 1018.28 1018.49 1018.61 1018.63 1018.55 1018.41 1018.25 1018.13 1018.09 1018.18 1018.39 1018.70 1019.08 1019.47 1019.85 1020.17 1020.42 1020.61 1020.75
1013.88 1014.22 1014.61 1015.02 1015.41 1015.77 1016.09 1016.38 1016.64 1016.88 1017.11 1017.33 1017.53 1017.67 1017.76 1017.77 1017.71 1017.61 1017.49 1017.41 1017.40 1017.47 1017.62 1017.85 1018.09 1018.32 1018.48 1018.55 1018.52 1018.43 1018.30 1018.18 1018.13 1018.17 1018.32 1018.56 1018.88 1019.23 1019.59 1019.93 1020.22 1020.47 1020.68
1014.05 1014.47 1014.91 1015.34 1015.75 1016.11 1016.42 1016.69 1016.93 1017.15 1017.36 1017.56 1017.73 1017.86 1017.93 1017.93 1017.85 1017.73 1017.60 1017.49 1017.44 1017.47 1017.60 1017.80 1018.04 1018.27 1018.46 1018.57 1018.58 1018.52 1018.41 1018.29 1018.19 1018.17 1018.23 1018.38 1018.61 1018.91 1019.24 1019.58 1019.92 1020.23 1020.52
1014.25 1014.74 1015.23 1015.71 1016.13 1016.51 1016.82 1017.08 1017.30 1017.50 1017.69 1017.86 1018.01 1018.12 1018.18 1018.17 1018.10 1017.98 1017.84 1017.72 1017.65 1017.65 1017.74 1017.91 1018.13 1018.36 1018.55 1018.68 1018.73 1018.69 1018.58 1018.44 1018.29 1018.19 1018.15 1018.20 1018.34 1018.56 1018.85 1019.18 1019.55 1019.92 1020.28
1014.49 1015.04 1015.58 1016.08 1016.53 1016.91 1017.23 1017.48 1017.69 1017.88 1018.04 1018.19 1018.32 1018.42 1018.48 1018.48 1018.42 1018.32 1018.19 1018.07 1017.99 1017.97 1018.03 1018.16 1018.34 1018.55 1018.73 1018.87 1018.92 1018.89 1018.79 1018.62 1018.43 1018.26 1018.13 1018.08 1018.12 1018.25 1018.48 1018.79 1019.16 1019.56 1019.98
1014.79 1015.36 1015.92 1016.43 1016.89 1017.28 1017.61 1017.86 1018.07 1018.23 1018.38 1018.51 1018.63 1018.72 1018.78 1018.80 1018.77 1018.71 1018.61 1018.51 1018.43 1018.39 1018.41 1018.50 1018.64 1018.80 1018.96 1019.08 1019.13 1019.11 1019.00 1018.82 1018.60 1018.37 1018.16 1018.03 1017.97 1018.03 1018.19 1018.45 1018.79 1019.20 1019.63
1015.14 1015.69 1016.23 1016.74 1017.19 1017.58 1017.91 1018.17 1018.37 1018.54 1018.67 1018.79 1018.89 1018.98 1019.06 1019.10 1019.11 1019.09 1019.03 1018.96 1018.89 1018.85 1018.84 1018.88 1018.97 1019.08 1019.19 1019.29 1019.33 1019.30 1019.20 1019.02 1018.79 1018.53 1018.28 1018.07 1017.94 1017.92 1018.00 1018.20 1018.50 1018.87 1019.29
1015.49 1016.00 1016.49 1016.96 1017.40 1017.78 1018.11 1018.38 1018.59 1018.76 1018.89 1019.00 1019.09 1019.18 1019.27 1019.34 1019.39 1019.41 1019.41 1019.38 1019.33 1019.29 1019.26 1019.26 1019.29 1019.35 1019.42 1019.48 1019.50 1019.48 1019.38 1019.22 1018.99 1018.73 1018.46 1018.21 1018.03 1017.94 1017.95 1018.08 1018.31 1018.62 1018.99
1015.83 1016.26 1016.69 1017.11 1017.51 1017.88 1018.21 1018.49 1018.72 1018.89 1019.02 1019.13 1019.22 1019.31 1019.40 1019.50 1019.59 1019.66 1019.71 1019.72 1019.71 1019.68 1019.65 1019.62 1019.60 1019.61 1019.62 1019.65 1019.65 1019.63 1019.55 1019.41 1019.21 1018.97 1018.70 1018.45 1018.24 1018.09 1018.04 1018.10 1018.25 1018.48 1018.77
1016.10 1016.46 1016.81 1017.17 1017.53 1017.88 1018.22 1018.51 1018.76 1018.95 1019.08 1019.19 1019.27 1019.36 1019.45 1019.57 1019.69 1019.81 1019.91 1019.98 1020.01 1020.01 1019.98 1019.93 1019.88 1019.84 1019.82 1019.81 1019.80 1019.77 1019.71 1019.60 1019.44 1019.24 1019.00 1018.75 1018.53 1018.36 1018.26 1018.24 1018.31 1018.47 1018.68
1016.28 1016.56 1016.84 1017.14 1017.47 1017.81 1018.15 1018.46 1018.72 1018.93 1019.07 1019.18 1019.25 1019.34 1019.43 1019.55 1019.70 1019.86 1020.01 1020.14 1020.22 1020.25 1020.24 1020.20 1020.13 1020.07 1020.01 1019.98 1019.95 1019.92 1019.88 1019.80 1019.68 1019.52 1019.31 1019.09 1018.87 1018.69 1018.55 1018.48 1018.49 1018.57 1018.70
1016.34 1016.56 1016.79 1017.04 1017.34 1017.67 1018.02 1018.34 1018.62 1018.84 1019.00 1019.10 1019.18 1019.25 1019.34 1019.47 1019.63 1019.82 1020.02 1020.20 1020.34 1020.42 1020.44 1020.41 1020.35 1020.28 1020.21 1020.15 1020.11 1020.08 1020.05 1020.00 1019.92 1019.79 1019.62 1019.43 1019.22 1019.03 1018.87 1018.77 1018.72 1018.74 1018.81
1016.27 1016.46 1016.65 1016.87 1017.15 1017.47 1017.82 1018.16 1018.46 1018.70 1018.86 1018.96 1019.03 1019.10 1019.18 1019.31 1019.49 1019.71 1019.95 1020.18 1020.37 1020.50 1020.56 1020.57 1020.53 1020.46 1020.38 1020.32 1020.27 1020.24 1020.21 1020.18 1020.12 1020.02 1019.88 1019.71 1019.53 1019.34 1019.17 1019.04 1018.96 1018.93 1018.96
1016.04 1016.22 1016.39 1016.61 1016.88 1017.20 1017.56 1017.91 1018.22 1018.46 1018.64 1018.75 1018.82 1018.88 1018.97 1019.10 1019.30 1019.54 1019.81 1020.07 1020.31 1020.49 1020.60 1020.64 1020.63 1020.58 1020.51 1020.45 1020.40 1020.36 1020.34 1020.31 1020.27 1020.19 1020.07 1019.92 1019.75 1019.56 1019.39 1019.24 1019.14 1019.08 1019.08
Thickness
5800 5796 5785 5783 5781 5780 5779 5777 5776 5774 5773 5771 5769 5767 5765 5764 5763 5762 5761 5760 5758 5758 5757 5757 5756 5755 5754 5754 5753 5752 5752 5751 5750 5749 5747 5745 5743 5741 5739 5738 5738 5738 5737
5803 5795 5784 5781 5780 5778 5777 5776 5774 5772 5770 5768 5766 5765 5763 5762 5760 5760 5759 5758 5757 5756 5755 5755 5754 5753 5753 5752 5752 5751 5750 5750 5749 5748 5746 5744 5742 5739 5738 5737 5738 5737 5736
5801 5793 5783 5780 5777 5776 5775 5773 5772 5770 5768 5766 5764 5762 5761 5760 5759 5758 5757 5756 5755 5754 5753 5752 5752 5751 5750 5750 5750 5749 5749 5748 5748 5747 5747 5746 5741 5738 5736 5736 5735 5735 5735
5798 5791 5784 5778 5775 5773 5772 5771 5769 5767 5766 5764 5762 5760 5759 5758 5757 5756 5755 5754 5753 5752 5751 5750 5749 5748 5748 5748 5748 5747 5747 5746 5746 5747 5750 5747 5743 5737 5736 5734 5734 5733 5734
5795 5789 5782 5775 5773 5770 5769 5768 5766 5765 5763 5761 5760 5759 5757 5756 5755 5754 5753 5752 5751 5750 5749 5748 5747 5746 5745 5745 5745 5745 5745 5745 5746 5748 5749 5746 5742 5736 5735 5733 5732 5732 5732
5792 5786 5779 5773 5770 5768 5766 5765 5763 5762 5761 5759 5758 5757 5755 5754 5753 5752 5750 5749 5748 5747 5746 5745 5744 5743 5743 5743 5743 5743 5743 5743 5745 5749 5746 5745 5741 5735 5734 5732 5732 5731 5731
5789 5785 5777 5770 5768 5766 5764 5763 5761 5760 5758 5757 5756 5754 5752 5751 5750 5749 5747 5746 5745 5744 5743 5742 5741 5741 5741 5740 5741 5741 5741 5742 5747 5747 5744 5743 5738 5734 5732 5731 5730 5730 5730
5787 5783 5774 5766 5765 5763 5761 5760 5758 5757 5756 5754 5753 5751 5750 5748 5747 5746 5744 5743 5742 5741 5740 5739 5738 5738 5738 5737 5738 5738 5739 5740 5744 5745 5743 5741 5735 5732 5731 5729 5728 5728 5728
5784 5780 5773 5768 5763 5760 5758 5757 5756 5754 5753 5751 5750 5748 5747 5745 5743 5742 5741 5740 5739 5738 5737 5736 5735 5735 5735 5734 5735 5735 5736 5738 5744 5743 5742 5738 5732 5730 5729 5728 5727 5726 5726
5779 5777 5772 5769 5765 5761 5758 5754 5753 5751 5749 5748 5746 5745 5743 5742 5741 5739 5738 5737 5736 5735 5734 5733 5732 5732 5731 5731 5732 5732 5733 5735 5743 5741 5740 5735 5730 5728 5727 5726 5725 5724 5724
5771 5771 5771 5768 5763 5761 5759 5753 5751 5748 5746 5745 5743 5741 5741 5743 5742 5739 5737 5734 5733 5732 5732 5731 5730 5729 5729 5729 5729 5729 5731 5737 5741 5740 5737 5731 5728 5726 5725 5723 5722 5722 5722
5762 5765 5765 5764 5761 5760 5758 5752 5750 5749 5746 5745 5743 5741 5741 5739 5738 5737 5734 5732 5731 5730 5730 5729 5729 5728 5728 5731 5729 5728 5733 5735 5737 5736 5733 5728 5725 5724 5723 5722 5721 5720 5719
5761 5761 5761 5760 5758 5757 5753 5751 5749 5747 5743 5742 5739 5737 5736 5736 5736 5735 5734 5732 5730 5730 5730 5729 5729 5730 5730 5731 5730 5731 5732 5733 5734 5734 5731 5726 5723 5722 5721 5720 5719 5718 5717
5757 5756 5757 5755 5753 5751 5750 5748 5745 5744 5741 5740 5736 5734 5734 5734 5732 5732 5730 5731 5730 5730 5729 5729 5727 5727 5728 5727 5727 5728 5728 5729 5730 5730 5727 5724 5722 5720 5720 5719 5717 5716 5715
5751 5751 5751 5750 5748 5746 5743 5743 5742 5740 5739 5736 5733 5730 5730 5731 5729 5729 5727 5726 5728 5728 5728 5727 5727 5725 5725 5725 5725 5726 5725 5726 5726 5727 5726 5722 5720 5719 5718 5717 5716 5715 5714
5745 5745 5745 5743 5742 5741 5739 5738 5737 5736 5733 5733 5730 5727 5726 5727 5725 5725 5725 5724 5726 5726 5726 5725 5725 5724 5724 5723 5723 5723 5723 5724 5723 5722 5724 5722 5719 5719 5718 5717 5715 5714 5712
5740 5740 5739 5738 5738 5736 5735 5734 5733 5732 5731 5729 5725 5723 5722 5722 5721 5722 5723 5723 5723 5723 5722 5723 5723 5723 5723 5722 5721 5721 5721 5721 5721 5720 5721 5722 5721 5718 5717 5715 5714 5713 5711
5735 5735 5735 5736 5733 5732 5730 5729 5729 5729 5727 5724 5722 5720 5718 5718 5718 5718 5720 5721 5719 5721 5722 5721 5722 5722 5721 5721 5720 5720 5719 5718 5718 5718 5719 5719 5719 5720 5717 5715 5713 5712 5710
5730 5730 5730 5730 5728 5727 5725 5724 5724 5722 5721 5721 5719 5718 5716 5715 5715 5717 5717 5716 5716 5719 5719 5720 5719 5719 5718 5717 5719 5717 5718 5718 5716 5717 5717 5718 5718 5717 5717 5714 5712 5711 5710
5726 5726 5726 5725 5724 5723 5722 5721 5720 5719 5719 5718 5717 5714 5713 5714 5713 5714 5715 5713 5716 5717 5716 5715 5713 5713 5715 5715 5718 5717 5717 5716 5716 5716 5716 5717 5716 5716 5716 5715 5713 5711 5709
5721 5721 5721 5722 5721 5720 5720 5719 5718 5718 5718 5717 5716 5712 5712 5712 5711 5711 5714 5712 5713 5714 5712 5713 5713 5712 5713 5713 5714 5714 5715 5716 5715 5713 5714 5715 5716 5715 5714 5713 5713 5712 5710
5719 5719 5719 5720 5720 5719 5719 5720 5719 5719 5718 5718 5716 5711 5711 5710 5710 5711 5710 5713 5711 5710 5709 5709 5709 5712 5712 5711 5711 5711 5710 5710 5709 5713 5712 5711 5712 5713 5713 5712 5711 5710 5710
5719 5719 5721 5720 5719 5720 5719 5720 5718 5717 5716 5716 5714 5713 5711 5709 5709 5708 5709 5710 5709 5711 5710 5707 5707 5707 5709 5709 5709 5709 5709 5708 5709 5709 5706 5707 5707 5708 5710 5709 5709 5708 5707
5722 5722 5721 5719 5719 5719 5719 5721 5720 5718 5718 5718 5716 5715 5711 5709 5709 5708 5708 5707 5708 5709 5706 5708 5706 5707 5705 5708 5707 5705 5705 5705 5705 5704 5705 5705 5704 5703 5704 5706 5706 5703 5703
5726 5725 5723 5721 5720 5720 5721 5721 5719 5720 5721 5721 5717 5714 5712 5711 5709 5709 5708 5707 5706 5707 5705 5704 5703 5704 5705 5705 5705 5705 5703 5702 5703 5701 5700 5700 5702 5702 5701 5700 5700 5700 5699
5729 5727 5726 5723 5721 5721 5721 5721 5720 5720 5719 5718 5715 5715 5713 5714 5712 5710 5708 5707 5706 5706 5704 5703 5702 5701 5701 5699 5701 5702 5701 5701 5700 5699 5697 5696 5697 5699 5697 5696 5697 5696 5695